Location: Cluj-Napoca
(46.7712°N, 23.6236°E)
Time: 00:30:06
(UTC+03:00)

N. Korean satellite - Pass Details

Date: 29 September 2021
Orbit: 450 x 495 km, 97.3° (Epoch: 21 October)

Event Time Altitude Azimuth Distance (km) Brightness Sun altitude
Rises 06:12:19 0° 21° (NNE) 2,541 10.7 -12.6°
Reaches altitude 10° 06:14:32 10° 32° (NNE) 1,665 9.9 -12.3°
Maximum altitude 06:17:46 31° 97° (E) 868 8.6 -11.7°
Drops below altitude 10° 06:21:01 10° 161° (SSE) 1,672 9.4 -11.2°
Sets 06:23:14 0° 172° (S) 2,554 10.2 -10.8°
